Date String (YYYY-MM-DD hh:mm:ss) UTC,Instrument flags,Ambient pressure (hPa),Sample flow (lpm),Bypass flow (lpm),Sample temperature (°C),Ambient temperature (°C),ASC tube jacket temperature (°C),LED temperature (°C),Box temperature (°C),Sample RH (%),Span deviation,Mass concentration (μg/m³),Mass concentration (μg/m³),Mass concentration (μg/m³)
DateTimeUTC,F1_M11,P_M11,Q1_M11,Q2_M11,T1_M11,T2_M11,T3_M11,T4_M11,T5_M11,U1_M11,ZSPAN_M11,X0_M11,X2_M11,X1_M11
2022-09-22 06:00:00,,0833.4,4.98,0.00,29.6,27.9,00.0,38.4,31.4,25.5,0000.0,0007.34,0004.85,0004.75
2022-09-22 06:01:00,,0833.4,5.01,0.00,29.6,27.9,00.0,38.4,31.4,25.5,0000.0,0006.43,0004.78,0004.68
2022-09-22 06:02:00,,0833.4,4.99,0.00,29.6,27.9,00.0,38.4,31.4,25.5,0000.0,0006.55,0004.82,0004.71
2022-09-22 06:03:00,,0833.4,5.00,0.00,29.6,27.8,00.0,38.4,31.4,25.9,0000.0,0006.91,0004.90,0004.78
2022-09-22 06:04:00,,0833.4,4.99,0.00,29.5,27.8,00.0,38.4,31.3,26.7,0000.0,0007.08,0004.93,0004.82
2022-09-22 06:05:00,,0833.5,5.00,0.00,29.5,27.7,00.0,38.4,31.3,25.9,0000.0,0007.12,0004.96,0004.84
2022-09-22 06:06:00,,0833.4,5.00,0.00,29.5,27.6,00.0,38.3,31.3,25.8,-000.6,0007.13,0004.96,0004.85
2022-09-22 06:07:00,,0833.4,4.99,0.00,29.5,27.6,00.0,38.3,31.3,25.7,-001.6,0007.12,0004.98,0004.88
2022-09-22 06:08:00,,0833.5,5.01,0.00,29.5,27.6,00.0,38.3,31.3,25.6,-001.6,0007.28,0005.02,0004.91
2022-09-22 06:09:00,,0833.4,4.99,0.00,29.5,27.6,00.0,38.3,31.2,25.6,-001.8,0007.38,0005.06,0004.95
2022-09-22 06:10:00,,0833.4,5.01,0.00,29.4,27.6,00.0,38.3,31.2,25.6,-001.9,0007.39,0005.09,0004.99
2022-09-22 06:11:00,,0833.5,5.00,0.00,29.4,27.5,00.0,38.3,31.2,25.6,-001.7,0007.38,0005.12,0005.01
2022-09-22 06:12:00,,0833.5,4.99,0.00,29.4,27.5,00.0,38.3,31.2,25.7,-001.5,0007.41,0005.15,0005.05
2022-09-22 06:13:00,,0833.4,5.01,0.00,29.4,27.5,00.0,38.2,31.2,25.7,-001.7,0007.42,0005.16,0005.06
2022-09-22 06:14:00,,0833.5,5.01,0.00,29.4,27.5,00.0,38.2,31.1,25.7,-002.0,0007.30,0005.12,0005.02
2022-09-22 06:15:00,,0833.4,4.99,0.00,29.4,27.5,00.0,38.2,31.1,25.8,-000.3,0007.14,0005.14,0005.02
2022-09-22 06:16:00,,0833.4,5.01,0.00,29.4,27.6,00.0,38.2,31.2,25.7,0000.0,0007.35,0005.17,0005.01
2022-09-22 06:17:00,,0833.5,4.99,0.00,29.3,27.6,00.0,38.2,31.1,25.8,0000.0,0007.41,0005.19,0005.02
2022-09-22 06:18:00,,0833.5,5.01,0.00,29.3,27.5,00.0,38.2,31.1,25.7,0000.0,0007.46,0005.22,0005.04
2022-09-22 06:19:00,,0833.5,4.99,0.00,29.3,27.6,00.0,38.2,31.1,25.8,0000.0,0007.44,0005.24,0005.06
2022-09-22 06:20:00,,0833.5,5.01,0.00,29.3,27.6,00.0,38.2,31.1,25.8,0000.0,0007.42,0005.25,0005.07
2022-09-22 06:21:00,,0833.5,4.99,0.00,29.3,27.5,00.0,38.2,31.1,25.8,0000.0,0007.48,0005.29,0005.11
2022-09-22 06:22:00,,0833.4,5.00,0.00,29.3,27.5,00.0,38.1,31.1,25.8,0000.0,0007.51,0005.32,0005.13
2022-09-22 06:23:00,,0833.4,4.98,0.00,29.3,27.4,00.0,38.1,31.1,25.7,0000.0,0007.53,0005.35,0005.16
2022-09-22 06:24:00,,0833.4,5.01,0.00,29.3,27.4,00.0,38.1,31.0,25.7,0000.0,0007.56,0005.37,0005.18
2022-09-22 06:25:00,,0833.4,4.99,0.00,29.3,27.4,00.0,38.1,31.0,25.8,0000.0,0007.55,0005.38,0005.19
2022-09-22 06:26:00,,0833.4,5.01,0.00,29.2,27.4,00.0,38.1,31.0,25.7,-001.8,0007.54,0005.39,0005.20
2022-09-22 06:27:00,,0833.5,4.99,0.00,29.2,27.4,00.0,38.1,31.0,25.8,-002.7,0007.49,0005.40,0005.24
2022-09-22 06:28:00,,0833.4,5.01,0.00,29.2,27.4,00.0,38.1,31.0,25.9,-002.3,0007.51,0005.42,0005.25
2022-09-22 06:29:00,,0833.5,4.99,0.00,29.2,27.5,00.0,38.1,31.0,25.9,0000.0,0007.51,0005.42,0005.24
2022-09-22 06:30:00,,0833.4,5.01,0.00,29.2,27.5,00.0,38.0,31.0,25.9,0000.0,0007.52,0005.43,0005.23
2022-09-22 06:31:00,,0833.4,4.99,0.00,29.2,27.5,00.0,38.0,31.0,25.8,0000.0,0007.53,0005.44,0005.23
2022-09-22 06:32:00,,0833.4,4.99,0.00,29.2,27.5,00.0,38.0,31.0,25.9,-000.7,0007.54,0005.43,0005.21
2022-09-22 06:33:00,,0833.4,5.01,0.00,29.2,27.4,00.0,38.0,31.0,25.8,0000.0,0007.51,0005.41,0005.20
2022-09-22 06:34:00,,0833.5,5.00,0.00,29.2,27.4,00.0,38.0,31.0,25.8,0000.0,0007.52,0005.40,0005.18
2022-09-22 06:35:00,,0833.4,5.00,0.00,29.2,27.4,00.0,38.0,31.0,25.9,0000.0,0007.51,0005.39,0005.16
2022-09-22 06:36:00,,0833.4,5.00,0.00,29.2,27.5,00.0,38.0,31.0,25.9,0000.0,0007.48,0005.37,0005.14
2022-09-22 06:37:00,,0833.4,5.00,0.00,29.2,27.5,00.0,38.0,31.0,25.9,0000.0,0007.51,0005.34,0005.11
2022-09-22 06:38:00,,0833.4,5.00,0.00,29.2,27.4,00.0,38.0,31.0,25.8,0000.0,0007.58,0005.34,0005.09
2022-09-22 06:39:00,,0833.4,5.01,0.00,29.2,27.5,00.0,38.0,31.0,25.9,0000.0,0007.56,0005.32,0005.09
2022-09-22 06:40:00,,0833.5,4.99,0.00,29.2,27.5,00.0,38.0,31.0,25.9,0000.0,0007.59,0005.33,0005.10
2022-09-22 06:41:00,,0833.4,5.01,0.00,29.1,27.4,00.0,38.0,31.0,25.8,0000.0,0007.69,0005.36,0005.11
2022-09-22 06:42:00,,0833.5,4.99,0.00,29.1,27.4,00.0,37.9,30.9,25.8,0000.0,0007.70,0005.37,0005.13
2022-09-22 06:43:00,,0833.5,5.01,0.00,29.1,27.4,00.0,37.9,31.0,25.9,-000.6,0007.81,0005.41,0005.14
2022-09-22 06:44:00,,0833.5,4.99,0.00,29.1,27.5,00.0,37.9,31.0,26.6,-000.8,0007.87,0005.43,0005.15
2022-09-22 06:45:00,,0833.5,5.01,0.00,29.1,27.5,00.0,37.9,31.0,26.9,-001.4,0007.96,0005.47,0005.17
2022-09-22 06:46:00,,0833.5,5.01,0.00,29.1,27.5,00.0,37.9,31.0,26.1,-001.3,0007.96,0005.48,0005.18
2022-09-22 06:47:00,,0833.4,4.99,0.00,29.1,27.6,00.0,37.9,31.0,26.0,-001.1,0008.07,0005.53,0005.20
2022-09-22 06:48:00,,0833.4,4.99,0.00,29.1,27.6,00.0,37.9,31.0,25.9,-001.2,0008.16,0005.59,0005.25
2022-09-22 06:49:00,,0833.4,5.01,0.00,29.1,27.5,00.0,37.9,31.0,25.9,-000.9,0008.39,0005.64,0005.27
2022-09-22 06:50:00,,0833.4,4.98,0.00,29.1,27.5,00.0,37.9,30.9,25.9,-000.4,0008.91,0005.68,0005.31
2022-09-22 06:51:00,,0833.3,5.01,0.00,29.1,27.5,00.0,37.9,30.9,25.9,-000.2,0008.97,0005.75,0005.37
2022-09-22 06:52:00,,0833.3,5.01,0.00,29.1,27.4,00.0,37.9,30.9,25.9,-000.0,0008.95,0005.76,0005.40
2022-09-22 06:53:00,,0833.2,4.99,0.00,29.1,27.4,00.0,37.9,30.9,25.9,-000.1,0009.05,0005.81,0005.44
2022-09-22 06:54:00,,0833.3,5.01,0.00,29.1,27.3,00.0,37.9,30.9,25.9,0000.0,0009.16,0005.87,0005.48
2022-09-22 06:55:00,,0833.3,4.99,0.00,29.1,27.4,00.0,37.9,30.9,26.0,-000.6,0009.29,0005.93,0005.54
2022-09-22 06:56:00,,0833.3,5.01,0.00,29.1,27.5,00.0,37.9,30.9,26.0,-001.0,0009.28,0005.94,0005.58
2022-09-22 06:57:00,,0833.3,4.99,0.00,29.1,27.5,00.0,37.9,30.9,26.0,-000.9,0009.37,0006.00,0005.64
2022-09-22 06:58:00,,0833.3,5.00,0.00,29.1,27.5,00.0,37.9,30.9,26.0,-001.5,0009.41,0006.02,0005.68
2022-09-22 06:59:00,,0833.4,5.00,0.00,29.1,27.5,00.0,37.9,30.9,26.0,-001.8,0009.46,0006.05,0005.70
